{"data":{"norad_id":62153,"epoch":"2026-05-24T23:15:22.106304Z","epoch_age_seconds":81192,"freshness":"FRESH","line1":"1 62153U 24224Q   26144.96900586  .00011774  00000+0  43659-3 0  9990","line2":"2 62153  43.0027  87.5131 0001396 255.6880 104.3816 15.27589207 83980","mean_motion":15.27589207,"eccentricity":0.0001396,"inclination_deg":43.0027,"raan_deg":87.5131,"arg_perigee_deg":255.688,"mean_anomaly_deg":104.3816,"bstar":0.00043659,"rev_number":8398,"period_min":94.26618055439,"perigee_km":482.06370937754,"apogee_km":483.97934483831,"semimajor_km":6861.1585271079,"source":"CELESTRAK","updated_at":"2026-05-25T13:38:19.593834Z"}}